Chihuahua, Mexico

12:11 AM MDT on April 26, 2017 (GMT -0600)
Gen Div P A Roberto Fierro

Weather History for MMCU - January, 2014

Change the Weather History Date:

Wednesday, January 1, 2014

  Actual Average Record
Temperature  
Mean Temperature 47 °F -  
Max Temperature 66 °F 64 °F 78 °F (1999)
Min Temperature 28 °F 33 °F 28 °F (2013)
Degree Days  
Heating Degree Days 18    
Moisture  
Dew Point 30 °F    
Average Humidity 50    
Maximum Humidity 100    
Minimum Humidity 20    
Precipitation  
Precipitation 0.00 in - - ()
Sea Level Pressure  
Sea Level Pressure 30.13 in    
Wind  
Wind Speed 4 mph ()    
Max Wind Speed 13 mph    
Max Gust Speed -    
Visibility 9.0 miles    
Events      
Averages and records for this station are not official NWS values.
T = Trace of Precipitation, MM = Missing Value Source: Averaged Metar Reports

Daily Weather History Graph

Daily Weather History Graph

Search for Another Location

Airport or City:

Trip Planner

Search our weather history database for the weather conditions in past years. The results will help you decide how hot, cold, wet, or windy it might be!

Date:

Astronomy

Jan. 01, 2014 Rise Set
Actual Time 6:56 AM MST 5:18 PM MST
Civil Twilight 6:30 AM MST 5:44 PM MST
Nautical Twilight 6:01 AM MST 6:13 PM MST
Astronomical Twilight 5:32 AM MST 6:42 PM MST
Moon 6:55 AM MST (1/1) 6:00 PM MST (1/1)
Length of Visible Light 11h 13m
Length of Day
10h 21m
New Moon, 0% of the Moon is Illuminated
Jan 1
New Moon
Jan 7
First Quarter
Jan 15
Full
Jan 23
Last Quarter
Jan 30
New

Hourly Weather History & Observations

Time (MST) Temp. Windchill Dew Point Humidity Pressure Visibility Wind Dir Wind Speed Gust Speed Precip Events Conditions
4:40 AM 28.4 °F - 26.6 °F 93% 30.12 in 10.0 mi Calm Calm - N/A   Clear
5:44 AM 30.2 °F 25.4 °F 28.4 °F 93% 30.19 in 10.0 mi SSE 4.6 mph - N/A   Clear
6:07 AM 35 °F - 29 °F 71%  in 1 mi NNE 2.2 mph - -  
6:45 AM 28.4 °F 20.4 °F 26.6 °F 93% 30.20 in 10.0 mi SSE 8.1 mph - N/A   Clear
7:40 AM 32.0 °F 26.4 °F 32.0 °F 100% 30.23 in 10.0 mi SSE 5.8 mph - N/A   Clear
8:40 AM 41.0 °F 38.0 °F 32.0 °F 70% 30.22 in 10.0 mi South 4.6 mph - N/A   Clear
9:40 AM 51.8 °F - 30.2 °F 44% 30.23 in 10.0 mi Calm Calm - N/A   Clear
10:40 AM 60 °F - 35 °F 26% 30.08 in 6 mi SW 2.2 mph - -  
10:45 AM 57.2 °F - 30.2 °F 36% 30.16 in 10.0 mi Calm Calm - N/A   Clear
11:40 AM 62.6 °F - 28.4 °F 27% 30.18 in 10.0 mi Calm Calm - N/A   Clear
12:40 PM 64.4 °F - 28.4 °F 26% 30.13 in 10.0 mi West 4.6 mph - N/A   Clear
1:40 PM 64.4 °F - 32.0 °F 30% 30.05 in 10.0 mi ENE 11.5 mph - N/A   Clear
1:45 PM 66 °F - 35 °F 20% 29.94 in 6 mi ENE 4.5 mph - -  
2:40 PM 64.4 °F - 32.0 °F 30% 30.11 in 10.0 mi East 12.7 mph - N/A   Clear
3:40 PM 64.4 °F - 30.2 °F 28% 30.12 in 10.0 mi ENE 9.2 mph - N/A   Clear
4:40 PM 60.8 °F - 30.2 °F 31% 30.08 in 10.0 mi ENE 4.6 mph - N/A   Clear
4:45 PM 62 °F - 36 °F 27% 29.89 in 6 mi ENE 6.7 mph - -  
5:40 PM 51.8 °F - 28.4 °F 41% 30.13 in 10.0 mi Calm Calm - N/A   Clear
6:40 PM 48.2 °F - 28.4 °F 46% 30.15 in 10.0 mi Calm Calm - N/A   Clear
7:40 PM 39.2 °F 33.6 °F 26.6 °F 61% 30.24 in 10.0 mi South 8.1 mph - N/A   Clear
8:40 PM 39.2 °F 33.0 °F 28.4 °F 65% 30.20 in 10.0 mi South 9.2 mph - N/A   Clear